Regional Weather Roundup
Issued by NWS Spokane, WA

Home | Current Version | Previous Version | Text Only | Print | Product List | Glossary On
Versions: 1 2 3 4 5 6 7 8 9 10 11 12 13 14 15 16 17 18 19 20 21 22 23 24 25 26 27 28 29 30 31 32 33 34 35 36 37 38 39 40 41 42 43 44 45 46 47 48 49 50
000
NZUS01 KOTX 170025
RWROTX

Eastern Washington/Northern Idaho Roundup
National Weather Service, Spokane WA
400 PM PST SAT DEC 16 2017

Note: "fair" indicated few or no clouds below 12,000 feet with no
significant weather and/or obstructions to visibility.

...Northeast Washington and Northern Idaho Panhandle...

CITY           SKY/WX    TMP DP  RH WIND       PRES   REMARKS
Spokane Intl   LGT SNOW  24  24 100 SE5       30.24R FOG     WCI  18
Spokane Downto CLOUDY    28  23  81 SW5       30.26R WCI  23
Coeur d Alene  CLOUDY    27  23  85 CALM      30.24R
Deer Park      CLOUDY    26  24  92 S7        30.24S WCI  18
Sandpoint      CLOUDY    30  25  80 SW6       30.22S WCI  24
Bonners Ferry  CLOUDY    28  23  80 SW6       30.18R WCI  22

...Southeast Washington and southern Idaho Panhandle...

CITY           SKY/WX    TMP DP  RH WIND       PRES   REMARKS
Walla Walla    CLEAR     33  30  88 E3        30.27S FOG
Pullman/Moscow CLOUDY    28  25  88 E5        30.25R FOG     WCI  23
Lewiston       CLOUDY    31  30  96 CALM      30.29R FOG
Lowell           N/A     32  30  92 CALM      30.32R
Grangeville    CLOUDY    27  27 100 E10       30.19F VSB 3/4 WCI  17

...Columbia Basin...

CITY           SKY/WX    TMP DP  RH WIND       PRES   REMARKS
Ephrata        CLOUDY    31  26  82 S3        30.27S
Moses Lake     CLOUDY    30  29  96 E6        30.29R WCI  24
Pasco          CLOUDY    35  30  82 N3        30.33S
Richland       CLOUDY    35  32  88 NE9       30.33R WCI  28
Hermiston      CLEAR     35  32  88 E3        30.28S FOG
Pendleton      CLEAR     38  32  79 CALM      30.25S

...East Slopes Cascades...

CITY           SKY/WX    TMP DP  RH WIND       PRES   REMARKS
The Dalles     MOCLDY    46  36  68 NW10      30.28S
Yakima         CLOUDY    37  31  78 CALM      30.26S
Ellensburg     CLOUDY    42  30  62 NW10      30.21S
Stampede Pass  CLOUDY    30  28  92 SW5       30.18S WCI  25
Wenatchee      CLOUDY    30  30 100 E10       30.25S WCI  21
Omak           CLOUDY    30  30 100 S7        30.25S WCI  23
Sunnyside      CLOUDY    32  31  96 CALM      30.29S FOG

...Southern British Columbia...

CITY           SKY/WX    TMP DP  RH WIND       PRES   REMARKS
Penticton      CLOUDY    34  28  80 S16G23    30.21R WCI  23
Castlegar      MOCLDY    32  25  74 S13       30.21S WCI  22
Cranbrook      PTCLDY    19  16  86 VRB2      30.09R
Osoyoos          N/A     30  27  86 SE8         N/A  WCI  23
Creston          N/A     30  25  80 W1          N/A

...Western Montana...

CITY           SKY/WX    TMP DP  RH WIND       PRES   REMARKS
Kalispell      CLOUDY    28  26  92 CALM      30.12R
Libby            N/A     27  21  80 SE3       30.13R
Missoula       MOCLDY    30  23  75 N8        30.13R WCI  22

...Neighboring Cities...

CITY           SKY/WX    TMP DP  RH WIND       PRES   REMARKS
Seattle        CLOUDY    44  40  85 S6        30.28F
Portland       CLOUDY    44  41  89 E5        30.34F
Boise          CLEAR     35  25  66 NW16      30.11R WCI  25
Great Falls    CLEAR     27  22  81 S5        30.00R WCI  22
Calgary        PTCLDY    30   3  31 W6        29.87S WCI  24



USA.gov is the U.S. government's official web portal to all federal, state and local government web resources and services.